Regional Weather Roundup
Issued by NWS Upton, NY

Current Version | Previous Version | Text Only | Print | Product List | Glossary On
Versions: 1 2 3 4 5 6 7 8 9 10 11 12 13 14 15 16 17 18 19 20 21 22 23 24 25 26 27 28 29 30 31 32 33 34 35 36 37 38 39 40 41 42 43 44 45 46 47 48 49 50
000
ASUS41 KOKX 072104
RWROKX

REGIONAL WEATHER ROUNDUP
NATIONAL WEATHER SERVICE NEW YORK NY
400 PM EST SUN FEB 07 2016

NOTE: "FAIR" INDICATES FEW OR NO CLOUDS BELOW 12,000 FEET WITH NO
SIGNIFICANT WEATHER AND/OR OBSTRUCTIONS TO VISIBILITY.

NYZ071-072-176-178-NJZ106-104-072200-
NEW YORK CITY METRO AREA


CITY           SKY/WX    TMP DP  RH WIND       PRES   REMARKS
CENTRAL PARK   CLOUDY    45  20  36 E7        30.06F
LAGUARDIA APRT CLOUDY    44  23  43 NE10      30.05F
KENNEDY INTL   CLOUDY    42  25  50 NE7       30.06F
NEWARK/LIBERTY CLOUDY    45  24  43 CALM      30.05F
BRNX BOT. GARD   N/A     43  21  42 E3        30.04F
TETERBORO      CLOUDY    46  20  35 VRB6      30.03F
$$

NYZ177-179-078>081-072200-
LONG ISLAND NEW YORK

CITY           SKY/WX    TMP DP  RH WIND       PRES   REMARKS
FARMINGDALE    CLOUDY    43  24  47 NE5       30.05F
ISLIP          CLOUDY    41  26  55 E5        30.03F
SHIRLEY        CLOUDY    42  29  59 CALM      30.06F
RIVERHEAD        N/A     34  27  75 W1        30.21S
WESTHAMPTON    CLOUDY    39  28  64 NE7       30.07F WCI  34
EAST HAMPTON   FAIR      41  28  59 N3        30.06F
MONTAUK POINT    N/A     41  30  65 NE5       30.08F
$$

NYZ052-065-067-072200-
HUDSON VALLEY

CITY           SKY/WX    TMP DP  RH WIND       PRES   REMARKS
WHITE PLAINS   CLOUDY    42  20  41 E3        30.03F
NEWBURGH       NOT AVBL
MONTGOMERY     SUNNY     47  19  33 CALM      30.01F
POUGHKEEPSIE   SUNNY     49  18  29 N3        30.02F
ALBANY         MOSUNNY   45  19  35 E3        30.06F
$$

NJZ001-105-106-008-010-013-015-019>022-104-072200-
NEW JERSEY

CITY           SKY/WX    TMP DP  RH WIND       PRES   REMARKS
NEWARK/LIBERTY CLOUDY    45  24  43 CALM      30.05F
TETERBORO      CLOUDY    46  20  35 VRB6      30.03F
CALDWELL       CLOUDY    45  20  36 E5        30.04F
MORRISTOWN     PTSUNNY   45  21  39 CALM      30.04F
SOMERVILLE     CLOUDY    44  23  43 SE3       30.02F
SUSSEX         CLOUDY    47  19  33 CALM      30.02F
ANDOVER          N/A     46  17  31 CALM      30.01F
TRENTON        CLOUDY    43  22  43 E6        30.02F
MILLVILLE      CLOUDY    44  23  43 N8        30.01S
ATLANTIC CITY  PTSUNNY   42  28  57 NE8       30.01R
WRIGHTSTOWN    CLOUDY    41  35  80 E6        30.00R
TOMS RIVER     CLOUDY    41  27  56 NE6       30.04R
BELMAR         CLOUDY    41  21  45 N5        30.04R
$$

PAZ047>061-062-071-072200-
EASTERN PENNSYLVANIA

CITY           SKY/WX    TMP DP  RH WIND       PRES   REMARKS
PHILADELPHIA   CLOUDY    45  23  42 E8        30.03R
ALLENTOWN      CLOUDY    45  19  35 CALM      30.01F
SCRANTON       SUNNY     47  24  40 CALM      29.97F
$$

CTZ002-004>006-009-010-012-RIZ004-006-007-MAZ004-011-015-072200-
SOUTHERN NEW ENGLAND
 IN CT

CITY           SKY/WX    TMP DP  RH WIND       PRES   REMARKS
BRADLEY INTL   PTSUNNY   46  19  34 CALM      30.05F
HARTFORD       MOSUNNY   45  21  38 CALM      30.06F
DANBURY        CLOUDY    43  18  36 SE7       30.05F
WTRBRY/OXFORD  SUNNY     41  18  38 S12       30.05F
BRIDGEPORT     SUNNY     40  27  59 NE5       30.07F
MERIDEN        MOSUNNY   44  22  41 S7        30.05F
NEW HAVEN      PTSUNNY   40  25  55 E5        30.07F
CHESTER        FAIR      41  27  56 E3        30.06F
GROTON         CLOUDY    41  32  70 E5        30.06F
WILLIMANTIC    MOSUNNY   45  22  40 SE3       30.07F

 IN RI

CITY           SKY/WX    TMP DP  RH WIND       PRES   REMARKS
PROVIDENCE     PTSUNNY   40  26  57 CALM      30.09F
BLOCK ISLAND   CLOUDY    39  30  70 NE7       30.06F WCI  34
WESTERLY       MOSUNNY   41  29  62 NE3       30.08F

 IN MA

CITY           SKY/WX    TMP DP  RH WIND       PRES   REMARKS
BOSTON         PTSUNNY   39  28  64 E8        30.12F WCI  33
WORCESTER      SUNNY     41  21  44 E7        30.05F
WESTFIELD      SUNNY     45  20  36 CALM      30.06F
PROVINCETOWN   CLOUDY    40  30  67 NE7       30.12F
NANTUCKET      CLOUDY    40  32  73 NE8       30.08F WCI  34
$$

ANZ330-335-338-340-345-350-353-355-072200-
COASTAL MARINE OBSERVATIONS


STATION/POSITION TIME  SKY/WX   TEMP    WIND        PRES    VSBY  WAVE
                                AIR SEA DIR/SP/G                  HT/PER
                 (UTC)          (F)     (DEG/KT/KT) (MB)    (MI)  (FT/S)
NY HARB ENTRANCE 1950            40 44   40/  4/  6 1017.5          2/10
4S FIRE IS       NOT AVBL
20S FIRE ISLAND  1950            40 43   40/  8/  8 1017.6          2/10
GREAT SOUTH BAY  NOT AVBL
23SW MTP         2050            41 45   50/ 10/ 12 1017.5          2/ 9
HUDSON CANYON    1950            44 50              1016.3          3/10
KINGS POINT      2000            43 40   60/  5/  7 1017.2
EXECUTION ROCKS  NOT AVBL
CENTRAL LI SOUND 2000            39      CALM  /  2   N/A           0
EASTERN LI SOUND 2000            40 42   30/  2/  4   N/A
ROBBINS REEF     2000            41     180/  4/  5 1016.6
$$


>>>>>>>>>>>>>>>>>>>>>>>>>>>> KEY <<<<<<<<<<<<<<<<<<<<<<<<<<<
>                                                          <
>     SKY/WX - SKY CONDITION/PRESENT WEATHER               <
>     TMP    - TEMPERATURE IN FAHRENHEIT                   <
>     DP     - DEWPOINT IN FAHRENHEIT                      <
>     RH     - RELATIVE HUMIDITY IN PERCENT                <
>     WIND   - DIRECTION AND SPEED IN MPH                  <
>     PRES   - MEAN SEA LEVEL PRESSURE IN INCHES OF HG     <
>     WCI    - WIND CHILL INDEX                            <
>     VSB    - VISIBILITY IN MILES                         <
>     HX     - HEAT INDEX                                  <
>     TC     - TEMPERATURE IN CELSIUS                      <
>     VRB    - VARIABLE WIND DIRECTION                     <
>                                                          <
>>>>>>>>>>>>>>>>>>>>>>>>>>>> KEY <<<<<<<<<<<<<<<<<<<<<<<<<<<





USA.gov is the U.S. government's official web portal to all federal, state and local government web resources and services.